Tracking 23762 objects as of 20-Oct-2021
HD Live streaming from Space Station
objects crossing your sky now

COSMOS 2491 DEB

Track COSMOS 2491 DEB now!
10-day predictions


NORAD ID: 45128
Int'l Code: 2013-076Z
Perigee: 812.9 km
Apogee: 849.0 km
Inclination: 81.2 °
Period: 101.4 minutes
Semi major axis: 7201 km
RCS: Unknown
Launch date: December 25, 2013
Source: Commonwealth of Independent States (former USSR) (CIS)
Launch site: PLESETSK MISSILE AND SPACE COMPLEX (PKMTR)

Note: This is SATELLITE DEBRIS
aabbcc
Your satellite tracking list
Your tracking list is empty




NASA's NSSDC Master Catalog

Two Line Element Set (TLE):
1 45128U 13076AA  21291.64985583  .00001537  00000-0  70859-3 0  9998
2 45128  81.2129 277.2000 0025024 167.9267 192.2515 14.20461184 89333
Source of the keplerian elements: AFSPC